Time,TemperatureF,DewpointF,PressureIn,WindDirection,WindDirectionDegrees,WindSpeedMPH,WindSpeedGustMPH,Humidity,HourlyPrecipIn,Conditions,Clouds,dailyrainin,SolarRadiationWatts/m^2,SoftwareType,DateUTC
2013-02-08 00:10:00,24.2,14.0,30.34,WNW,300,0.0,0.0,64,0.00,,,0.00,0,weatherlink.com 1.10,2013-02-08 05:10:00,
2013-02-08 00:25:00,24.4,14.0,30.32,WNW,300,0.0,0.0,64,0.00,,,0.00,0,weatherlink.com 1.10,2013-02-08 05:25:00,
2013-02-08 00:40:00,24.5,14.0,30.32,WNW,300,0.0,0.0,64,0.00,,,0.00,0,weatherlink.com 1.10,2013-02-08 05:40:00,
2013-02-08 00:55:00,24.6,14.0,30.32,WNW,300,0.0,0.0,64,0.00,,,0.00,0,weatherlink.com 1.10,2013-02-08 05:55:00,
2013-02-08 01:10:00,24.8,14.0,30.30,WNW,300,0.0,0.0,63,0.00,,,0.00,0,weatherlink.com 1.10,2013-02-08 06:10:00,
2013-02-08 01:26:00,25.0,14.0,30.30,WNW,300,0.0,0.0,63,0.00,,,0.00,0,weatherlink.com 1.10,2013-02-08 06:26:00,
2013-02-08 01:40:00,25.1,14.0,30.30,WNW,300,0.0,0.0,62,0.00,,,0.00,0,weatherlink.com 1.10,2013-02-08 06:40:00,
2013-02-08 01:55:00,25.2,14.0,30.29,WNW,300,0.0,0.0,63,0.00,,,0.00,0,weatherlink.com 1.10,2013-02-08 06:55:00,
2013-02-08 02:10:00,25.4,15.0,30.28,WNW,300,0.0,0.0,64,0.00,,,0.00,0,weatherlink.com 1.10,2013-02-08 07:10:00,
2013-02-08 02:25:00,25.6,15.0,30.27,WNW,300,0.0,0.0,65,0.00,,,0.00,0,weatherlink.com 1.10,2013-02-08 07:25:00,
2013-02-08 02:40:00,25.7,15.0,30.27,WNW,300,0.0,0.0,65,0.00,,,0.00,0,weatherlink.com 1.10,2013-02-08 07:40:00,
2013-02-08 02:55:00,25.7,15.0,30.25,WNW,300,0.0,0.0,65,0.00,,,0.00,0,weatherlink.com 1.10,2013-02-08 07:55:00,
2013-02-08 03:11:00,25.6,15.0,30.25,WNW,300,0.0,1.0,65,0.00,,,0.00,0,weatherlink.com 1.10,2013-02-08 08:11:00,
2013-02-08 03:25:00,25.6,15.0,30.25,WNW,300,0.0,1.0,65,0.00,,,0.00,0,weatherlink.com 1.10,2013-02-08 08:25:00,
2013-02-08 03:41:00,25.5,15.0,30.24,WNW,300,0.0,1.0,65,0.00,,,0.00,0,weatherlink.com 1.10,2013-02-08 08:41:00,
2013-02-08 03:56:00,25.5,16.0,30.24,WNW,300,0.0,0.0,66,0.00,,,0.00,0,weatherlink.com 1.10,2013-02-08 08:56:00,
2013-02-08 04:11:00,25.5,16.0,30.23,WNW,300,0.0,3.0,66,0.00,,,0.00,0,weatherlink.com 1.10,2013-02-08 09:11:00,
2013-02-08 04:26:00,25.7,16.0,30.23,SSW,192,0.0,3.0,66,0.00,,,0.00,0,weatherlink.com 1.10,2013-02-08 09:26:00,
2013-02-08 04:41:00,26.3,15.0,30.23,SSW,200,0.0,6.0,63,0.00,,,0.00,0,weatherlink.com 1.10,2013-02-08 09:41:00,
2013-02-08 04:56:00,26.8,14.0,30.22,SW,236,0.0,3.0,60,0.00,,,0.00,0,weatherlink.com 1.10,2013-02-08 09:56:00,
2013-02-08 05:11:00,27.1,14.0,30.21,SW,233,0.0,1.0,58,0.00,,,0.00,0,weatherlink.com 1.10,2013-02-08 10:11:00,
2013-02-08 05:26:00,27.2,14.0,30.21,SSW,192,0.0,3.0,58,0.00,,,0.00,0,weatherlink.com 1.10,2013-02-08 10:26:00,
2013-02-08 05:41:00,27.3,14.0,30.21,SW,215,1.0,4.0,58,0.00,,,0.00,0,weatherlink.com 1.10,2013-02-08 10:41:00,
2013-02-08 05:56:00,27.4,14.0,30.20,WNW,284,0.0,2.0,58,0.00,,,0.00,0,weatherlink.com 1.10,2013-02-08 10:56:00,
2013-02-08 06:11:00,27.5,15.0,30.20,South,169,0.0,2.0,59,0.00,,,0.00,0,weatherlink.com 1.10,2013-02-08 11:11:00,
2013-02-08 06:26:00,27.6,15.0,30.20,South,169,0.0,1.0,59,0.00,,,0.00,0,weatherlink.com 1.10,2013-02-08 11:26:00,
2013-02-08 06:41:00,27.6,15.0,30.19,South,169,0.0,0.0,60,0.00,,,0.00,0,weatherlink.com 1.10,2013-02-08 11:41:00,
2013-02-08 06:56:00,27.6,16.0,30.18,South,169,0.0,0.0,61,0.00,,,0.00,0,weatherlink.com 1.10,2013-02-08 11:56:00,
2013-02-08 07:11:00,27.6,16.0,30.18,South,169,0.0,0.0,62,0.00,,,0.00,0,weatherlink.com 1.10,2013-02-08 12:11:00,
2013-02-08 07:26:00,27.6,16.0,30.18,South,169,0.0,0.0,63,0.00,,,0.00,0,weatherlink.com 1.10,2013-02-08 12:26:00,
2013-02-08 07:41:00,27.5,16.0,30.17,South,169,0.0,0.0,63,0.00,,,0.00,5,weatherlink.com 1.10,2013-02-08 12:41:00,
2013-02-08 07:56:00,27.5,17.0,30.17,South,169,0.0,0.0,64,0.00,,,0.00,12,weatherlink.com 1.10,2013-02-08 12:56:00,
2013-02-08 08:11:00,27.6,17.0,30.16,South,169,0.0,0.0,64,0.00,,,0.00,12,weatherlink.com 1.10,2013-02-08 13:11:00,
2013-02-08 08:26:00,27.7,18.0,30.15,South,185,0.0,2.0,66,0.00,,,0.00,33,weatherlink.com 1.10,2013-02-08 13:26:00,
2013-02-08 08:41:00,27.8,18.0,30.15,SW,225,1.0,2.0,68,0.00,,,0.00,21,weatherlink.com 1.10,2013-02-08 13:41:00,
2013-02-08 08:56:00,27.8,20.0,30.15,SW,224,1.0,3.0,71,0.00,,,0.00,18,weatherlink.com 1.10,2013-02-08 13:56:00,
2013-02-08 09:11:00,27.4,20.0,30.14,NW,325,0.0,3.0,74,0.00,,,0.00,16,weatherlink.com 1.10,2013-02-08 14:11:00,
2013-02-08 09:26:00,27.3,21.0,30.14,NW,307,0.0,3.0,76,0.00,,,0.00,35,weatherlink.com 1.10,2013-02-08 14:26:00,
2013-02-08 09:41:00,27.2,22.0,30.13,NW,307,0.0,1.0,79,0.00,,,0.00,33,weatherlink.com 1.10,2013-02-08 14:41:00,
2013-02-08 09:56:00,27.2,23.0,30.13,NW,307,0.0,2.0,83,0.00,,,0.00,37,weatherlink.com 1.10,2013-02-08 14:56:00,
2013-02-08 10:10:00,27.2,23.0,30.12,NW,313,0.0,2.0,84,0.00,,,0.00,44,weatherlink.com 1.10,2013-02-08 15:10:00,
2013-02-08 10:26:00,27.4,24.0,30.11,NW,313,0.0,1.0,86,0.00,,,0.00,35,weatherlink.com 1.10,2013-02-08 15:26:00,
2013-02-08 10:41:00,27.6,24.0,30.10,NW,320,0.0,2.0,87,0.00,,,0.00,26,weatherlink.com 1.10,2013-02-08 15:41:00,
2013-02-08 10:57:00,27.7,25.0,30.09,NW,319,0.0,1.0,88,0.00,,,0.00,26,weatherlink.com 1.10,2013-02-08 15:57:00,
2013-02-08 11:12:00,27.7,25.0,30.08,NW,324,0.0,3.0,88,0.00,,,0.00,26,weatherlink.com 1.10,2013-02-08 16:12:00,
2013-02-08 11:27:00,28.0,25.0,30.06,NW,324,0.0,2.0,89,0.00,,,0.00,30,weatherlink.com 1.10,2013-02-08 16:27:00,
2013-02-08 11:42:00,28.4,26.0,30.05,NNW,330,1.0,3.0,89,0.00,,,0.00,30,weatherlink.com 1.10,2013-02-08 16:42:00,
2013-02-08 11:57:00,29.0,26.0,30.03,NNW,330,0.0,2.0,89,0.00,,,0.00,32,weatherlink.com 1.10,2013-02-08 16:57:00,
2013-02-08 12:12:00,29.3,27.0,30.02,NNW,330,2.0,2.0,89,0.00,,,0.00,32,weatherlink.com 1.10,2013-02-08 17:12:00,
2013-02-08 12:27:00,29.2,26.0,30.01,NW,318,0.0,4.0,89,0.00,,,0.00,30,weatherlink.com 1.10,2013-02-08 17:27:00,
2013-02-08 12:42:00,29.4,27.0,30.00,WNW,302,0.0,4.0,89,0.00,,,0.00,39,weatherlink.com 1.10,2013-02-08 17:42:00,
2013-02-08 12:57:00,29.7,27.0,29.99,NNW,345,1.0,3.0,89,0.00,,,0.00,32,weatherlink.com 1.10,2013-02-08 17:57:00,
2013-02-08 13:12:00,29.6,27.0,29.98,NW,306,1.0,4.0,89,0.00,,,0.00,37,weatherlink.com 1.10,2013-02-08 18:12:00,
2013-02-08 13:42:00,29.7,27.0,29.95,NW,312,1.0,3.0,90,0.00,,,0.00,25,weatherlink.com 1.10,2013-02-08 18:42:00,
2013-02-08 13:57:00,29.8,27.0,29.94,NW,309,0.0,2.0,90,0.00,,,0.00,25,weatherlink.com 1.10,2013-02-08 18:57:00,
2013-02-08 14:12:00,30.0,28.0,29.92,NW,315,0.0,1.0,91,0.00,,,0.00,23,weatherlink.com 1.10,2013-02-08 19:12:00,
2013-02-08 14:27:00,30.2,28.0,29.91,NW,316,0.0,1.0,91,0.00,,,0.00,16,weatherlink.com 1.10,2013-02-08 19:27:00,
2013-02-08 14:44:00,30.3,28.0,29.91,NW,308,1.0,2.0,91,0.00,,,0.00,12,weatherlink.com 1.10,2013-02-08 19:44:00,
2013-02-08 14:57:00,30.2,28.0,29.90,NW,308,0.0,2.0,91,0.01,,,0.01,9,weatherlink.com 1.10,2013-02-08 19:57:00,
2013-02-08 15:12:00,30.0,28.0,29.89,NNW,341,0.0,2.0,91,0.01,,,0.01,9,weatherlink.com 1.10,2013-02-08 20:12:00,
2013-02-08 15:28:00,30.0,28.0,29.88,NNW,337,0.0,2.0,91,0.01,,,0.01,5,weatherlink.com 1.10,2013-02-08 20:28:00,
2013-02-08 15:42:00,29.8,28.0,29.87,NW,324,0.0,4.0,92,0.01,,,0.01,5,weatherlink.com 1.10,2013-02-08 20:42:00,
2013-02-08 15:57:00,29.7,28.0,29.86,NNW,342,0.0,2.0,92,0.00,,,0.01,5,weatherlink.com 1.10,2013-02-08 20:57:00,
2013-02-08 16:12:00,29.5,28.0,29.86,NNW,348,0.0,3.0,92,0.00,,,0.01,0,weatherlink.com 1.10,2013-02-08 21:12:00,
2013-02-08 16:27:00,29.3,27.0,29.86,NNW,346,0.0,2.0,92,0.00,,,0.01,0,weatherlink.com 1.10,2013-02-08 21:27:00,
2013-02-08 16:43:00,29.0,27.0,29.85,NNW,331,0.0,3.0,92,0.00,,,0.01,0,weatherlink.com 1.10,2013-02-08 21:43:00,
2013-02-08 16:57:00,28.5,27.0,29.84,NNW,336,1.0,3.0,92,0.00,,,0.01,0,weatherlink.com 1.10,2013-02-08 21:57:00,
2013-02-08 17:12:00,28.0,26.0,29.84,WSW,257,0.0,2.0,92,0.00,,,0.01,0,weatherlink.com 1.10,2013-02-08 22:12:00,
2013-02-08 17:27:00,27.6,26.0,29.84,NW,309,0.0,2.0,92,0.00,,,0.01,0,weatherlink.com 1.10,2013-02-08 22:27:00,
2013-02-08 17:42:00,27.3,25.0,29.84,West,265,0.0,2.0,92,0.00,,,0.01,0,weatherlink.com 1.10,2013-02-08 22:42:00,
2013-02-08 17:58:00,27.1,25.0,29.84,SSE,160,1.0,2.0,92,0.00,,,0.01,0,weatherlink.com 1.10,2013-02-08 22:58:00,
2013-02-08 18:13:00,26.9,25.0,29.84,North,349,0.0,3.0,92,0.00,,,0.01,0,weatherlink.com 1.10,2013-02-08 23:13:00,
2013-02-08 18:28:00,26.8,25.0,29.83,West,267,0.0,2.0,92,0.00,,,0.01,0,weatherlink.com 1.10,2013-02-08 23:28:00,
2013-02-08 18:43:00,26.6,25.0,29.83,NW,318,1.0,3.0,93,0.00,,,0.01,0,weatherlink.com 1.10,2013-02-08 23:43:00,
2013-02-08 18:58:00,26.4,25.0,29.83,North,355,3.0,3.0,93,0.00,,,0.01,0,weatherlink.com 1.10,2013-02-08 23:58:00,
2013-02-08 19:12:00,26.3,25.0,29.82,North,355,0.0,3.0,93,0.00,,,0.01,0,weatherlink.com 1.10,2013-02-09 00:12:00,
2013-02-08 19:28:00,26.0,24.0,29.81,SW,227,0.0,1.0,93,0.00,,,0.01,0,weatherlink.com 1.10,2013-02-09 00:28:00,
2013-02-08 19:43:00,25.6,24.0,29.80,SE,130,1.0,3.0,93,0.00,,,0.01,0,weatherlink.com 1.10,2013-02-09 00:43:00,
2013-02-08 19:57:00,25.6,24.0,29.80,NW,306,0.0,2.0,93,0.00,,,0.01,0,weatherlink.com 1.10,2013-02-09 00:57:00,
2013-02-08 20:13:00,25.9,24.0,29.80,NNW,331,4.0,5.0,93,0.00,,,0.01,0,weatherlink.com 1.10,2013-02-09 01:13:00,
2013-02-08 20:28:00,25.5,24.0,29.79,SW,230,1.0,3.0,93,0.00,,,0.01,0,weatherlink.com 1.10,2013-02-09 01:28:00,
2013-02-08 20:43:00,25.5,24.0,29.78,NNE,15,0.0,3.0,93,0.00,,,0.01,0,weatherlink.com 1.10,2013-02-09 01:43:00,
2013-02-08 20:58:00,25.5,24.0,29.78,NW,309,0.0,3.0,93,0.00,,,0.01,0,weatherlink.com 1.10,2013-02-09 01:58:00,
2013-02-08 21:13:00,25.4,24.0,29.77,WNW,299,1.0,4.0,94,0.00,,,0.01,0,weatherlink.com 1.10,2013-02-09 02:13:00,
2013-02-08 21:28:00,25.2,24.0,29.77,NW,309,1.0,3.0,94,0.00,,,0.01,0,weatherlink.com 1.10,2013-02-09 02:28:00,
2013-02-08 21:43:00,25.1,24.0,29.76,SSW,205,1.0,5.0,94,0.00,,,0.01,0,weatherlink.com 1.10,2013-02-09 02:43:00,
2013-02-08 21:58:00,25.1,24.0,29.76,West,265,0.0,5.0,94,0.00,,,0.01,0,weatherlink.com 1.10,2013-02-09 02:58:00,
2013-02-08 22:13:00,25.0,24.0,29.76,NNW,346,3.0,6.0,94,0.00,,,0.01,0,weatherlink.com 1.10,2013-02-09 03:13:00,
2013-02-08 22:28:00,24.8,23.0,29.76,ESE,119,1.0,4.0,94,0.00,,,0.01,0,weatherlink.com 1.10,2013-02-09 03:28:00,
2013-02-08 22:43:00,24.7,23.0,29.76,NNW,333,1.0,4.0,94,0.00,,,0.01,0,weatherlink.com 1.10,2013-02-09 03:43:00,
2013-02-08 22:58:00,24.6,23.0,29.77,NW,307,0.0,7.0,94,0.00,,,0.01,0,weatherlink.com 1.10,2013-02-09 03:58:00,
2013-02-08 23:13:00,24.5,23.0,29.77,South,189,2.0,3.0,94,0.00,,,0.01,0,weatherlink.com 1.10,2013-02-09 04:13:00,
2013-02-08 23:28:00,24.4,23.0,29.78,SSW,207,2.0,7.0,93,0.00,,,0.01,0,weatherlink.com 1.10,2013-02-09 04:28:00,
2013-02-08 23:43:00,24.1,22.0,29.80,SE,138,1.0,5.0,93,0.00,,,0.01,0,weatherlink.com 1.10,2013-02-09 04:43:00,
2013-02-08 23:58:00,23.8,22.0,29.80,WSW,256,1.0,4.0,93,0.00,,,0.01,0,weatherlink.com 1.10,2013-02-09 04:58:00,